This is the latest recevied weather packets stored in our database for station/object FREPRT-WX. If no packets are shown the sender has not sent any weather packets the latest 10 day(s).
| Time | Temp. | Humidity | Pressure | Rain* | Wind** | Luminosity | Snow |
|---|---|---|---|---|---|---|---|
| 1777881672 | 8.89° C | 76% | 975 hPa | 0 mm | - | - | - |
| 1777880741 | 8.89° C | 75% | 975.7 hPa | 0 mm | - | - | - |
| 1777879859 | 8.89° C | 75% | 975.7 hPa | 0 mm | - | - | - |
| 1777878942 | 8.33° C | 75% | 975.7 hPa | 0 mm | - | - | - |
| 1777878070 | 8.33° C | 75% | 975.7 hPa | 0 mm | - | - | - |
| 1777877141 | 8.33° C | 76% | 977.2 hPa | 0 mm | - | - | - |
| 1777876258 | 8.33° C | 76% | 977.2 hPa | 0 mm | - | - | - |
| 1777875341 | 8.33° C | 76% | 977.2 hPa | 0 mm | - | - | - |
| 1777874479 | 8.33° C | 76% | 977.2 hPa | 0 mm | - | - | - |
| 1777873536 | 8.33° C | 76% | 978 hPa | 0 mm | - | - | - |
| 1777872658 | 8.33° C | 76% | 977.5 hPa | 0 mm | - | - | - |
| 1777871740 | 8.33° C | 76% | 977.5 hPa | 0 mm | - | - | - |
| 1777870873 | 8.33° C | 76% | 977.5 hPa | 0 mm | - | - | - |
| 1777869937 | 8.33° C | 75% | 977.9 hPa | 0 mm | - | - | - |
| 1777869061 | 8.33° C | 75% | 977.8 hPa | 0 mm | - | - | - |
| 1777868137 | 8.33° C | 75% | 977.7 hPa | 0 mm | - | - | - |
| 1777867276 | 8.33° C | 75% | 977.7 hPa | 0 mm | - | - | - |
| 1777866337 | 8.33° C | 72% | 978.4 hPa | 0 mm | - | - | - |
| 1777865458 | 8.33° C | 75% | 978.7 hPa | 0 mm | - | - | - |
| 1777864539 | 8.33° C | 75% | 978.7 hPa | 0 mm | - | - | - |
| 1777863671 | 8.33° C | 75% | 978.7 hPa | 0 mm | - | - | - |
| 1777862737 | 8.33° C | 66% | 978.6 hPa | 0 mm | - | - | - |
| 1777861853 | 8.89° C | 71% | 978.8 hPa | 0 mm | - | - | - |
| 1777860937 | 8.89° C | 71% | 978.8 hPa | 0 mm | - | - | - |
| 1777860069 | 8.89° C | 71% | 978.8 hPa | 0 mm | - | - | - |
* Rain latest hour (hover to see other rain measurements)
** Current wind speed in m/s (hover to see current wind gust speed)